PP5EO-15 Weather Reports


time (UTC)temp
C
wind
direction
speed
KPH
gust
KPH
rain 1hr
cm
rain 24hr
cm
rain mn
cm
humidity
%
barometer
mb
20260507210308 33 0.0 0.0 0.00 0.00 0.00 43 1006.5
20260507205314 34 0.0 0.0 0.00 0.00 0.00 41 1006.5
20260507204320 35 0.0 0.0 0.00 0.00 0.00 40 1006.4
20260507202329 36 0.0 0.0 0.00 0.00 0.00 37 1006.4
20260507201334 37 0.0 0.0 0.00 0.00 0.00 36 1006.2
20260507200338 37 0.0 0.0 0.00 0.00 0.00 36 1006.2
20260507195345 37 0.0 0.0 0.00 0.00 0.00 36 1006.2
20260507194349 37 0.0 0.0 0.00 0.00 0.00 36 1006.3
20260507193354 37 0.0 0.0 0.00 0.00 0.00 35 1006.4
20260507192359 38 0.0 0.0 0.00 0.00 0.00 34 1006.4
20260507191404 38 0.0 0.0 0.00 0.00 0.00 34 1006.4
20260507190409 38 0.0 0.0 0.00 0.00 0.00 34 1006.5
20260507185414 38 0.0 0.0 0.00 0.00 0.00 32 1006.5
20260507184419 40 0.0 0.0 0.00 0.00 0.00 30 1006.5
20260507183424 41 0.0 0.0 0.00 0.00 0.00 28 1006.6
20260507182429 41 0.0 0.0 0.00 0.00 0.00 28 1006.8
20260507181434 41 0.0 0.0 0.00 0.00 0.00 29 1007.0
20260507180439 41 0.0 0.0 0.00 0.00 0.00 29 1007.1
20260507175444 40 0.0 0.0 0.00 0.00 0.00 29 1007.0
20260507174537 40 0.0 0.0 0.00 0.00 0.00 31 1007.1
20260507173454 40 0.0 0.0 0.00 0.00 0.00 30 1007.0
20260507172459 42 0.0 0.0 0.00 0.00 0.00 27 1007.2
20260507171504 44 0.0 0.0 0.00 0.00 0.00 23 1007.5
20260507170509 44 0.0 0.0 0.00 0.00 0.00 23 1007.7
20260507165514 43 0.0 0.0 0.00 0.00 0.00 24 1007.9
20260507164518 44 0.0 0.0 0.00 0.00 0.00 23 1008.1
20260507163524 43 0.0 0.0 0.00 0.00 0.00 24 1008.3
20260507162529 43 0.0 0.0 0.00 0.00 0.00 23 1008.4
20260507160539 43 0.0 0.0 0.00 0.00 0.00 24 1008.9
20260507155544 43 0.0 0.0 0.00 0.00 0.00 25 1009.3
20260507154550 42 0.0 0.0 0.00 0.00 0.00 27 1009.6
20260507153554 40 0.0 0.0 0.00 0.00 0.00 30 1009.9
20260507152559 38 0.0 0.0 0.00 0.00 0.00 31 1010.2
20260507151604 38 0.0 0.0 0.00 0.00 0.00 31 1010.7
20260507150609 38 0.0 0.0 0.00 0.00 0.00 32 1011.0
20260507145614 38 0.0 0.0 0.00 0.00 0.00 32 1011.2
20260507144619 38 0.0 0.0 0.00 0.00 0.00 32 1011.3
20260507143625 38 0.0 0.0 0.00 0.00 0.00 33 1011.5
20260507142629 37 0.0 0.0 0.00 0.00 0.00 35 1011.8
20260507141633 36 0.0 0.0 0.00 0.00 0.00 36 1012.0
20260507140639 36 0.0 0.0 0.00 0.00 0.00 37 1012.2
20260507135644 35 0.0 0.0 0.00 0.00 0.00 39 1012.3
20260507134648 35 0.0 0.0 0.00 0.00 0.00 38 1012.5
20260507133654 35 0.0 0.0 0.00 0.00 0.00 37 1012.7
20260507132659 35 0.0 0.0 0.00 0.00 0.00 37 1012.9
20260507131703 35 0.0 0.0 0.00 0.00 0.00 37 1012.9
20260507130709 35 0.0 0.0 0.00 0.00 0.00 38 1012.9
20260507125714 34 0.0 0.0 0.00 0.00 0.00 39 1013.0
20260507124719 33 0.0 0.0 0.00 0.00 0.00 40 1013.1
20260507123724 33 0.0 0.0 0.00 0.00 0.00 41 1013.1
20260507122729 32 0.0 0.0 0.00 0.00 0.00 42 1013.1
20260507121733 32 0.0 0.0 0.00 0.00 0.00 42 1013.2
20260507120739 32 0.0 0.0 0.00 0.00 0.00 43 1013.3
20260507115744 32 0.0 0.0 0.00 0.00 0.00 44 1013.3
20260507114749 32 0.0 0.0 0.00 0.00 0.00 45 1013.2
20260507113754 32 0.0 0.0 0.00 0.00 0.00 45 1013.1
20260507112759 31 0.0 0.0 0.00 0.00 0.00 46 1013.1
20260507111804 31 0.0 0.0 0.00 0.00 0.00 47 1013.2
20260507110809 31 0.0 0.0 0.00 0.00 0.00 48 1013.2
20260507105814 30 0.0 0.0 0.00 0.00 0.00 49 1013.2
20260507104819 30 0.0 0.0 0.00 0.00 0.00 49 1013.2
20260507103824 30 0.0 0.0 0.00 0.00 0.00 49 1013.1
20260507102829 30 0.0 0.0 0.00 0.00 0.00 49 1013.0
20260507101835 30 0.0 0.0 0.00 0.00 0.00 49 1013.1
20260507100839 30 0.0 0.0 0.00 0.00 0.00 49 1013.0
20260507095844 30 0.0 0.0 0.00 0.00 0.00 50 1012.9
20260507094850 30 0.0 0.0 0.00 0.00 0.00 50 1012.9
20260507093854 30 0.0 0.0 0.00 0.00 0.00 50 1013.0
20260507092859 30 0.0 0.0 0.00 0.00 0.00 50 1012.8
20260507091904 30 0.0 0.0 0.00 0.00 0.00 51 1012.7
20260507090909 30 0.0 0.0 0.00 0.00 0.00 50 1012.7
20260507085914 30 0.0 0.0 0.00 0.00 0.00 50 1012.6
20260507084919 30 0.0 0.0 0.00 0.00 0.00 50 1012.5
20260507083924 30 0.0 0.0 0.00 0.00 0.00 50 1012.5
20260507082928 31 0.0 0.0 0.00 0.00 0.00 50 1012.5
20260507082050 31 0.0 0.0 0.00 0.00 0.00 50 1012.4
20260507080939 31 0.0 0.0 0.00 0.00 0.00 51 1012.4
20260507075943 31 0.0 0.0 0.00 0.00 0.00 52 1012.5
20260507074949 31 0.0 0.0 0.00 0.00 0.00 52 1012.6
20260507073954 31 0.0 0.0 0.00 0.00 0.00 52 1012.6
20260507072959 31 0.0 0.0 0.00 0.00 0.00 52 1012.7
20260507072004 31 0.0 0.0 0.00 0.00 0.00 52 1012.7
20260507071009 31 0.0 0.0 0.00 0.00 0.00 52 1012.8
20260507070014 31 0.0 0.0 0.00 0.00 0.00 53 1012.9
20260507065019 31 0.0 0.0 0.00 0.00 0.00 53 1013.0
20260507064031 31 0.0 0.0 0.00 0.00 0.00 53 1013.0
20260507063031 31 0.0 0.0 0.00 0.00 0.00 53 1013.1
20260507062034 31 0.0 0.0 0.00 0.00 0.00 54 1013.2
20260507061040 30 0.0 0.0 0.00 0.00 0.00 54 1013.3
20260507055948 31 0.0 0.0 0.00 0.00 0.00 53 1013.4
20260507054950 31 0.0 0.0 0.00 0.00 0.00 53 1013.7
20260507053955 31 0.0 0.0 0.00 0.00 0.00 53 1013.9
20260507053000 31 0.0 0.0 0.00 0.00 0.00 53 1014.0
20260507052017 31 0.0 0.0 0.00 0.00 0.00 53 1014.2
20260507051010 31 0.0 0.0 0.00 0.00 0.00 53 1014.3
20260507050015 31 0.0 0.0 0.00 0.00 0.00 52 1014.4
20260507045020 31 0.0 0.0 0.00 0.00 0.00 52 1014.5
20260507044026 31 0.0 0.0 0.00 0.00 0.00 52 1014.6
20260507043030 31 0.0 0.0 0.00 0.00 0.00 53 1014.6
20260507041100 31 0.0 0.0 0.00 0.00 0.00 52 1014.7
20260507040107 31 0.0 0.0 0.00 0.00 0.00 52 1014.7
20260507035110 31 0.0 0.0 0.00 0.00 0.00 52 1014.8
20260507034114 31 0.0 0.0 0.00 0.00 0.00 52 1014.8
20260507033120 31 0.0 0.0 0.00 0.00 0.00 52 1014.9
20260507032126 31 0.0 0.0 0.00 0.00 0.00 52 1014.8
20260507030809 31 0.0 0.0 0.00 0.00 0.00 51 1015.1
20260507025814 32 0.0 0.0 0.00 0.00 0.00 50 1015.2
20260507024819 32 0.0 0.0 0.00 0.00 0.00 50 1015.3
20260507023823 32 0.0 0.0 0.00 0.00 0.00 49 1015.4
20260507022829 33 0.0 0.0 0.00 0.00 0.00 48 1015.4
20260507020137 31 0.0 0.0 0.00 0.00 0.00 53 1015.6
20260507015142 31 0.0 0.0 0.00 0.00 0.00 53 1015.6
20260507014147 31 0.0 0.0 0.00 0.00 0.00 53 1015.6
20260507013153 31 0.0 0.0 0.00 0.00 0.00 53 1015.6
20260507012200 31 0.0 0.0 0.00 0.00 0.00 53 1015.7
20260507011201 31 0.0 0.0 0.00 0.00 0.00 54 1015.7
20260507010207 31 0.0 0.0 0.00 0.00 0.00 53 1015.8
20260507005212 31 0.0 0.0 0.00 0.00 0.00 53 1015.8
20260507004217 31 0.0 0.0 0.00 0.00 0.00 53 1016.0
20260507003222 31 0.0 0.0 0.00 0.00 0.00 53 1016.1
20260507002227 31 0.0 0.0 0.00 0.00 0.00 52 1016.2
20260507001231 31 0.0 0.0 0.00 0.00 0.00 52 1016.2
20260507000238 31 0.0 0.0 0.00 0.00 0.00 52 1016.3
20260506235242 31 0.0 0.0 0.00 0.00 0.00 51 1016.3
20260506234247 31 0.0 0.0 0.00 0.00 0.00 51 1016.2
20260506233252 31 0.0 0.0 0.00 0.00 0.00 51 1016.1
20260506232257 31 0.0 0.0 0.00 0.00 0.00 51 1015.9
20260506231302 31 0.0 0.0 0.00 0.00 0.00 50 1015.8
20260506230307 31 0.0 0.0 0.00 0.00 0.00 50 1015.7
20260506225312 32 0.0 0.0 0.00 0.00 0.00 50 1015.6
20260506224317 32 0.0 0.0 0.00 0.00 0.00 50 1015.6
20260506223322 32 0.0 0.0 0.00 0.00 0.00 49 1015.5
20260506222327 32 0.0 0.0 0.00 0.00 0.00 49 1015.5
20260506221335 32 0.0 0.0 0.00 0.00 0.00 49 1015.4
20260506220338 32 0.0 0.0 0.00 0.00 0.00 49 1015.4
20260506215342 32 0.0 0.0 0.00 0.00 0.00 49 1015.4
20260506214347 32 0.0 0.0 0.00 0.00 0.00 49 1015.2
20260506213352 32 0.0 0.0 0.00 0.00 0.00 49 1015.2
20260506212357 32 0.0 0.0 0.00 0.00 0.00 49 1015.1
20260506211402 32 0.0 0.0 0.00 0.00 0.00 48 1015.1